Joint Base Elmendorf-Richardson, AK

5:36 PM AKST on February 24, 2017 (GMT -0900)
Elmendorf Air Force Base

Weather History for PAED - December, 2013

Change the Weather History Date:

Tuesday, December 31, 2013

  Actual Average Record
Temperature  
Mean Temperature 16 °F -  
Max Temperature 25 °F 23 °F 48 °F (1980)
Min Temperature 9 °F 10 °F -21 °F (1964)
Degree Days  
Heating Degree Days 48    
Moisture  
Dew Point 14 °F    
Average Humidity 82    
Maximum Humidity 93    
Minimum Humidity 72    
Precipitation  
Precipitation 0.00 in - - ()
Sea Level Pressure  
Sea Level Pressure 29.51 in    
Wind  
Wind Speed 4 mph (WNW)    
Max Wind Speed 10 mph    
Max Gust Speed -    
Visibility 10 miles    
Events      
Averages and records for this station are not official NWS values.
T = Trace of Precipitation, MM = Missing Value Source: NWS Daily Summary

Daily Weather History Graph

Daily Weather History Graph

Search for Another Location

Airport or City:

Trip Planner

Search our weather history database for the weather conditions in past years. The results will help you decide how hot, cold, wet, or windy it might be!

Date:

Astronomy

Dec. 31, 2013 Rise Set
Actual Time 10:14 AM AKST 3:51 PM AKST
Civil Twilight 9:12 AM AKST 4:52 PM AKST
Nautical Twilight 8:13 AM AKST 5:51 PM AKST
Astronomical Twilight 7:20 AM AKST 6:45 PM AKST
Moon 8:59 AM AKST (12/31) 3:57 PM AKST (12/31)
Length of Visible Light 7h 39m
Length of Day
5h 36m
Waning Crescent, 1% of the Moon is Illuminated
Dec 31
Waning Crescent
Jan 1
New
Jan 7
First Quarter
Jan 15
Full
Jan 23
Last Quarter

Hourly Weather History & Observations

Time (AKST) Temp. Windchill Dew Point Humidity Pressure Visibility Wind Dir Wind Speed Gust Speed Precip Events Conditions
12:58 AM 9.5 °F - 6.8 °F 89% 29.62 in 10.0 mi Calm Calm - N/A   Clear
1:58 AM 13.8 °F 4.9 °F 11.8 °F 92% 29.62 in 10.0 mi West 5.8 mph - N/A   Clear
2:58 AM 16.2 °F - 14.5 °F 93% 29.63 in 10.0 mi North 1.2 mph - N/A   Mostly Cloudy
3:58 AM 16.7 °F 9.6 °F 14.5 °F 91% 29.64 in 10.0 mi Variable 4.6 mph - N/A   Overcast
4:58 AM 17.6 °F 8.2 °F 14.4 °F 87% 29.65 in 10.0 mi West 6.9 mph - N/A   Overcast
5:58 AM 16.9 °F 8.5 °F 13.6 °F 87% 29.64 in 10.0 mi West 5.8 mph - N/A   Overcast
6:58 AM 16.3 °F 6.7 °F 12.6 °F 85% 29.64 in 10.0 mi West 6.9 mph - N/A   Overcast
7:58 AM 16.7 °F 7.2 °F 11.7 °F 81% 29.65 in 10.0 mi West 6.9 mph - N/A   Mostly Cloudy
8:58 AM 17.6 °F 9.3 °F 12.2 °F 79% 29.63 in 10.0 mi West 5.8 mph - N/A   Mostly Cloudy
9:58 AM 17.1 °F - 11.1 °F 77% 29.64 in 10.0 mi Calm Calm - N/A   Clear
10:58 AM 13.1 °F - 10.0 °F 88% 29.64 in 10.0 mi NNW 2.3 mph - N/A   Mostly Cloudy
11:58 AM 19.0 °F 12.3 °F 13.1 °F 78% 29.61 in 10.0 mi West 4.6 mph - N/A   Mostly Cloudy
12:58 PM 18.5 °F 11.7 °F 13.1 °F 79% 29.59 in 10.0 mi North 4.6 mph - N/A   Overcast
1:58 PM 17.2 °F 10.2 °F 13.5 °F 85% 29.55 in 10.0 mi NW 4.6 mph - N/A   Overcast
2:58 PM 20.7 °F 9.5 °F 15.4 °F 80% 29.50 in 10.0 mi WNW 10.4 mph - N/A   Overcast
3:58 PM 22.1 °F 15.9 °F 16.3 °F 79% 29.45 in 10.0 mi Variable 4.6 mph - N/A   Overcast
4:58 PM 22.6 °F 13.4 °F 16.9 °F 79% 29.42 in 10.0 mi NW 8.1 mph - N/A   Overcast
5:58 PM 23.5 °F 19.1 °F 17.2 °F 77% 29.39 in 10.0 mi Variable 3.5 mph - N/A   Overcast
6:58 PM 23.9 °F 15.8 °F 17.6 °F 77% 29.37 in 10.0 mi Variable 6.9 mph - N/A   Overcast
7:58 PM 23.9 °F 16.8 °F 17.4 °F 76% 29.34 in 10.0 mi NW 5.8 mph - N/A   Partly Cloudy
8:58 PM 19.2 °F 11.3 °F 15.1 °F 84% 29.30 in 10.0 mi Variable 5.8 mph - N/A   Overcast
9:58 PM 24.6 °F 15.1 °F 16.9 °F 72% 29.28 in 10.0 mi NNW 9.2 mph - N/A   Scattered Clouds
10:58 PM 17.6 °F 9.3 °F 14.0 °F 86% 29.26 in 10.0 mi WNW 5.8 mph - N/A   Mostly Cloudy
11:58 PM 25.0 °F 16.3 °F 18.1 °F 75% 29.27 in 10.0 mi SSE 8.1 mph - N/A   Clear